CW0467 Weather Reports


time (UTC)temp
F
wind
direction
speed
knots
gust
knots
rain 1hr
in
rain 24hr
in
rain mn
in
humidity
%
barometer
mb
20260507065711 56 247 0.0 0.0 0.00 0.10 0.00 88 1005.4
20260507064711 56 247 0.0 0.0 0.00 0.10 0.00 88 1005.4
20260507061711 57 247 0.0 0.0 0.00 0.10 0.00 88 1005.7
20260507060711 57 247 0.0 0.0 0.00 0.10 0.00 88 1005.8
20260507055710 57 247 0.0 0.0 0.00 0.10 0.00 88 1006.0
20260507053710 57 247 0.0 1.7 0.00 0.10 0.00 88 1005.8
20260507052710 57 268 0.0 2.6 0.00 0.10 0.00 88 1005.9
20260507050710 57 177 0.9 2.6 0.00 0.10 0.00 88 1006.3
20260507042710 57 234 0.0 1.7 0.00 0.10 0.00 88 1006.1
20260507040711 57 247 0.0 4.3 0.00 0.10 0.00 88 1006.0
20260507032710 57 273 0.9 6.1 0.00 0.10 0.10 88 1006.3
20260507030710 57 268 0.0 2.6 0.00 0.10 0.10 88 1006.0
20260507025711 57 271 0.9 4.3 0.00 0.10 0.10 88 1005.8
20260507024710 57 215 1.7 5.2 0.05 0.10 0.10 88 1005.8
20260507022710 57 227 2.6 7.0 0.05 0.10 0.10 88 1005.9
20260507020711 57 251 1.7 4.3 0.05 0.10 0.10 88 1006.4
20260507014710 57 220 3.5 6.1 0.00 0.05 0.05 88 1006.5
20260507013711 57 221 2.6 7.0 0.00 0.05 0.05 88 1006.7
20260507011711 57 210 2.6 10.4 0.00 0.05 0.05 88 1006.7
20260507003712 58 224 2.6 8.7 0.00 0.05 0.05 88 1006.8
20260507000710 58 228 1.7 6.1 0.00 0.05 0.05 88 1006.8
20260506234710 58 242 2.6 10.4 0.05 0.05 0.05 88 1006.8
20260506233710 58 208 3.5 7.0 0.05 0.05 0.05 88 1006.8
20260506232710 58 208 2.6 7.0 0.05 0.05 0.05 88 1006.8
20260506231711 58 240 2.6 6.1 0.05 0.05 0.05 88 1006.8
20260506230710 58 212 2.6 11.3 0.05 0.05 0.05 87 1006.8
20260506225711 59 209 3.5 6.1 0.00 0.00 0.00 87 1006.9
20260506222713 59 219 4.3 7.8 0.00 0.00 0.00 86 1007.2
20260506213710 62 236 3.5 7.8 0.00 0.00 0.00 83 1007.3
20260506210711 63 220 5.2 10.4 0.00 0.00 0.00 81 1007.5
20260506205711 63 234 4.3 12.2 0.00 0.00 0.00 81 1007.5
20260506203711 62 249 4.3 10.4 0.00 0.00 0.00 80 1007.7
20260506202710 63 215 4.3 11.3 0.00 0.00 0.00 79 1007.8
20260506201711 64 228 2.6 7.0 0.00 0.00 0.00 77 1007.9
20260506195711 65 264 5.2 10.4 0.00 0.00 0.00 73 1008.1
20260506194710 65 225 3.5 7.0 0.00 0.00 0.00 73 1008.2
20260506191712 65 231 5.2 13.0 0.00 0.00 0.00 72 1008.2
20260506185711 66 223 4.3 10.4 0.00 0.00 0.00 70 1008.3
20260506183711 67 207 5.2 12.2 0.00 0.00 0.00 69 1008.4
20260506182710 67 225 7.0 13.9 0.00 0.00 0.00 68 1008.5
20260506180751 68 202 7.8 14.8 0.00 0.00 0.00 65 1008.8
20260506174710 70 225 4.3 12.2 0.00 0.00 0.00 64 1009.2
20260506173710 70 212 6.1 12.2 0.00 0.00 0.00 64 1009.2
20260506172711 70 208 6.1 14.8 0.00 0.00 0.00 63 1009.1
20260506171710 70 232 5.2 13.9 0.00 0.00 0.00 65 1009.2
20260506170710 69 252 6.1 15.6 0.00 0.00 0.00 66 1009.4
20260506165710 69 224 5.2 14.8 0.00 0.00 0.00 66 1009.4
20260506164710 69 196 7.8 13.9 0.00 0.00 0.00 65 1009.5
20260506155710 71 192 5.2 13.0 0.00 0.00 0.00 62 1010.0
20260506153710 70 260 5.2 11.3 0.00 0.00 0.00 65 1010.6
20260506150710 70 198 6.1 12.2 0.00 0.00 0.00 64 1010.5
20260506135712 69 220 6.1 13.9 0.00 0.00 0.00 67 1010.8
20260506134714 68 216 5.2 11.3 0.00 0.00 0.00 69 1010.9
20260506133710 68 225 5.2 12.2 0.00 0.00 0.00 70 1011.1
20260506131710 66 245 2.6 8.7 0.00 0.00 0.00 74 1010.9
20260506125710 65 258 3.5 8.7 0.00 0.00 0.00 78 1010.9
20260506122710 62 194 4.3 11.3 0.00 0.00 0.00 82 1011.2
20260506120710 62 210 4.3 7.0 0.00 0.00 0.00 83 1011.4
20260506112711 60 201 4.3 10.4 0.00 0.00 0.00 85 1011.6
20260506105711 59 217 3.5 7.8 0.00 0.00 0.00 85 1011.7
20260506103709 59 216 4.3 7.8 0.00 0.00 0.00 85 1011.6
20260506100710 58 215 4.3 11.3 0.00 0.00 0.00 86 1011.3
20260506094710 58 233 3.5 10.4 0.00 0.00 0.00 86 1011.3
20260506092710 58 212 3.5 7.0 0.00 0.00 0.00 85 1011.3
20260506091710 58 194 2.6 7.0 0.00 0.00 0.00 85 1011.4
20260506084710 58 229 5.2 11.3 0.00 0.00 0.00 85 1011.4
20260506081710 59 246 4.3 11.3 0.00 0.00 0.00 84 1011.4
20260506071713 59 225 2.6 7.8 0.00 0.00 0.00 83 1011.4